Location: Dumpton Point
(51.3500°N, 1.4433°E)
Time: 23:33:28
(UTC+00:00)

SL-4 R/B - Pass Details

Date: 09 April 2020
Orbit: 428 x 666 km, 51.6° (Epoch: 04 June)

Event Time Altitude Azimuth Distance (km) Brightness Sun altitude
Rises 22:20:26 0° 282° (WNW) 2,404 5.8 -27.2°
Reaches altitude 10° 22:22:30 10° 280° (W) 1,547 4.7 -27.3°
Enters shadow 22:22:52 13° 279° (W) 1,399 4.5 -27.4°
